Terug naar catalogus

ONEWEB-0124

ActiefCommunicatiePO
NORAD 47270·PAYLOAD·🇬🇧 United Kingdom

Gelanceerd Dec 18, 2020 vanaf Vostochny Cosmodrome

Loading…

Volgende Passages (komende 24 uur)

TLE

VersSource: CelesTrak SupGP

Epoch: Sep 14, 2026, 22:47 UTC

1 47270C 20100N   26257.94944861 -.00001059  00000+0 -29479-2 0  2576
2 47270  87.8972 332.8456 0002019  94.9256   7.4759 13.12440361    19

Volg ONEWEB-0124 in realtime met AllMySat

Download on the App Store